Regional Weather Roundup
Issued by NWS Charleston, SC

Current Version | Previous Version | Graphics & Text | Print | Product List | Glossary On
Versions: 1 2 3 4 5 6 7 8 9 10 11 12 13 14 15 16 17 18 19 20 21 22 23 24 25 26 27 28 29 30 31 32 33 34 35 36 37 38 39 40 41 42 43 44 45 46 47 48 49 50
000
ASUS42 KCHS 020612
RWRCHS

REGIONAL WEATHER ROUNDUP
NATIONAL WEATHER SERVICE CHARLESTON SC
200 AM EDT THU JUL 02 2015

NOTE: "FAIR" INDICATES FEW OR NO CLOUDS BELOW 12,000 FEET WITH NO
SIGNIFICANT WEATHER AND/OR OBSTRUCTIONS TO VISIBILITY.

NOT ALL STATIONS ARE QUALITY CONTROLLED BY THE NATIONAL
WEATHER SERVICE. USE DATA WITH CAUTION...ESPECIALLY
DEWPOINT OBSERVATIONS.

SCZ027-030-031-034>040-042>050-020700-
...SOUTHEAST SOUTH CAROLINA...

CITY           SKY/WX    TMP DP  RH WIND       PRES   REMARKS
N CHARLESTON   PTCLDY    78  73  84 SW10      30.00S
6HR MIN TEMP:  77; 6HR MAX TEMP:  83;

WATERFRONT PAR   N/A     79  75  87 VRB3      29.99S
MOUNT PLEASANT LGT RAIN  79  75  89 S7        30.01S
JOHNS ISLAND   FAIR      77  73  88 SW6       30.01F
PINOPOLIS      NOT AVBL
MONCKS CORNER  FAIR      75  70  83 CALM      29.99F
SUMMERVILLE    FAIR      73  73 100 SW3       30.01S
BEAUFORT MCAS  MOCLDY    73  68  84 W9        30.02F
6HR MIN TEMP:  72; 6HR MAX TEMP:  85; 6HR PCP:  0.18;

BEAUFORT ARPT  FAIR      72  70  94 SW7       30.02F FOG
HILTON HEAD IS MOCLDY    79  70  73 S7        30.04F
WALTERBORO     PTCLDY    73  70  88 SW5       30.01F
ALLENDALE      FAIR      75  70  83 CALM      30.01S

...SOUTHERN MIDLANDS AND PEE DEE...

CITY           SKY/WX    TMP DP  RH WIND       PRES   REMARKS
GEORGETOWN     NOT AVBL
KINGSTREE      NOT AVBL
ORANGEBURG     CLOUDY    75  71  87 SW3       29.99F
6HR MIN TEMP:  74; 6HR MAX TEMP:  83;

BARNWELL       FAIR      75  70  83 W5        30.01F
AIKEN          NOT AVBL
MANNING        FAIR      73  70  88 SW3       29.99S
COLUMBIA       CLOUDY    76  65  68 SW3       29.98F
6HR MIN TEMP:  76; 6HR MAX TEMP:  84; 6HR PCP: TRACE;

SUMTER         CLOUDY    76  70  81 W7        29.97
6HR MIN TEMP:  76; 6HR MAX TEMP:  82;

FLORENCE       MOCLDY    77  71  82 SW7       29.97F
6HR MIN TEMP:  77; 6HR MAX TEMP:  82;

MYRTLE BEACH   CLEAR     79  70  73 SW7       30.00F
N MYRTLE BEACH CLEAR     79  71  76 SW7       29.97F
6HR MIN TEMP:  79; 6HR MAX TEMP:  82;


$$

GAZ063-065-086>088-099>101-113>116-118-119-134>141-150-020700-
...SOUTHEAST GEORGIA...

CITY           SKY/WX    TMP DP  RH WIND       PRES   REMARKS
SAVANNAH ARPT  MOCLDY    76  67  73 W3        30.04F
6HR MIN TEMP:  76; 6HR MAX TEMP:  86;

HUNTER AAF     MOCLDY    76  70  81 SW2       30.02F
6HR MIN TEMP:  76; 6HR MAX TEMP:  87;

FORT STEWART   MOCLDY    78  67  70 W6        30.02F
6HR MIN TEMP:  78; 6HR MAX TEMP:  87;

STATESBORO     NOT AVBL
SYLVANIA       NOT AVBL
CLAXTON        NOT AVBL

...CSRA...CENTRAL AND FAR SOUTHEAST GEORGIA...

CITY           SKY/WX    TMP DP  RH WIND       PRES   REMARKS
THOMSON        NOT AVBL
AUGUSTA-BUSH   LGT RAIN  73  67  81 SW5       30.01S
6HR MIN TEMP:  73; 6HR MAX TEMP:  83; 6HR PCP: TRACE;

AUGUSTA-DANIEL CLOUDY    74  65  73 SW3       30.03S
SWAINSBORO     NOT AVBL
VIDALIA        NOT AVBL
EASTMAN        NOT AVBL
HAZLEHURST     NOT AVBL
ALMA           MOCLDY    76  71  85 CALM      30.06F
6HR MIN TEMP:  76; 6HR MAX TEMP:  86;

WAYCROSS       NOT AVBL
JESUP          NOT AVBL
BAXLEY         NOT AVBL
BRUNSWICK      NOT AVBL
SAINT SIMONS   PTCLDY    78  70  76 SW10      30.05F
6HR MIN TEMP:  78; 6HR MAX TEMP:  87;


$$

SCZ027-028-034-036>038-045-046-048>050-GAZ119-141-020700-
...LAKE AND SUPPLEMENTAL COASTAL OBSERVATIONS...

STATION/POSITION TIME  TEMP    WIND        PRES    WAVE   SWELL
                       AIR SEA DIR/SP/G            HT/PER HT/PER/DIR
                 (UTC) (F)     (DEG/KT/KT) (MB)    (FT/S) (FT/S/D)
UPR LAKE MARION  NOT AVBL
WINYAH BAY       NOT AVBL
LAKE MURRAY      0500   74     240/  6/ 10 1015.6S
ACE BASIN NERRS  NOT AVBL
FORT PULASKI     0500   79 84  280/  6/  7 1018.2R
SAPELO ISLAND    0500   81     230/ 12     1018.0S

$$

ANZ835-935-AMZ111-154-330-350-352-354-370-450-454-472-020700-
...C-MAN AND BUOY OBSERVATIONS...

STATION/POSITION TIME  TEMP    WIND        PRES    WAVE   SWELL
                       AIR SEA DIR/SP/G            HT/PER HT/PER/DIR
                 (UTC) (F)     (DEG/KT/KT) (MB)    (FT/S) (FT/S/D)
BUOY 41004       0550   81 82  240/ 12/ 14 1015.7F   4/ 8   3/ 8
BUOY 41008       0550   81 79  240/ 12/ 14 1017.8F   2/ 8   2/130/ 8
FOLLY BEACH CMAN 0500   78     230/  7/  9 1016.5F
CAPERS NEARSHORE 0508   83     250/  8/ 12 1016.3F
FRIPP NEARSHORE  0500   79     300/ 12/ 14 1016.9F


STATION/POSITION TIME  TEMP    WIND        PRES    WAVE   SWELL
                       AIR SEA DIR/SP/G            HT/PER HT/PER/DIR
                 (UTC) (F)     (DEG/KT/KT) (MB)    (FT/S) (FT/S/D)
5E ST. MARYS GA  0521      77                N/A     2/ 9
FRYING PAN BUOY  0550   81 80  220/ 16/ 17 1015.9F   5/ 6   3/150/ 7
BUOY 41025       0550   80 82  250/ 17/ 19 1014.2F   5/ 6   2/190/ 8
CAPE LOOKOUT NC  0500   79     250/ 11/ 17 1014.8F
BUOY 41002       0550   82 80  230/ 16/ 17 1018.9R   6/ 8   2/190/12
BUOY 41010       0520   84 84  210/ 10/ 12 1020.1F
ST AUGUSTINE FL  0600   77 74  240/  4/  5 1019.4F


$$



USA.gov is the U.S. government's official web portal to all federal, state and local government web resources and services.